User: anonymous   Login
Location: Dover
(39.1580°N, 75.5250°W)
Time: 16:01:12
(UTC-04:00)
Language:

Cosmos 1437 Rocket - Orbit

View from above orbital plane
View from above orbital plane
View from above satellite
View from above satellite

Ground track
Ground track

The orbit data is extracted from the following two-line orbital elements,

1 13771U 83003B   14303.43953119  .00005041  00000-0  33311-3 0  1669
2 13771 081.1570 029.1898 0029524 306.3293 053.5205 15.06877253728919
Epoch (UTC): 30 October 2014 10:32:55
Eccentricity: 0.0029524
inclination: 81.1570°
perigee height: 525 km
apogee height: 566 km
right ascension of ascending node: 29.1898°
argument of perigee: 306.3293°
revolutions per day: 15.06877253
mean anomaly at epoch: 53.5205°
orbit number at epoch: 72891

The dashed part of the orbit path shows where the satellite is in the earth's shadow,  

DLR